Flag Weather past 2 weeks in Port of Spain, Trinidad and Tobago

Now
79 °F

Passing clouds.


Feels Like: 82 °F
Forecast: 78 / 86 °F
Wind: No wind

Location: Piarco International Airport - Trinidad

Current Time: Nov 26, 2014 at 11:21:06 PM

Latest Report: Nov 26, 2014 at 10:00 PM


Visibility: N/A

Pressure: 29.89 "Hg

Humidity: 84%

Dew point: 73 °F

Location of Port of SpainLocation

Historic Weather in Port of Spain — Graph

°F

Port of Spain temperature yesterday

Maximum temperature yesterday: 90 °F (at 12:00 PM)
Minimum temperature yesterday: 73 °F (at 4:00 AM)
Average temperature yesterday: 81 °F

Past Weeks' High & Low Weather Summary

 TemperatureHumidityPressure
High90 °F (Nov 17, 11:00 AM)100% (Nov 13, 2:00 AM)30.01 "Hg (Nov 13, 2:00 AM)
Low73 °F (Nov 12, 6:00 AM)55% (Nov 26, 12:00 PM)29.77 "Hg (Nov 12, 3:00 PM)
Average79 °F85%29.88 "Hg
* Reported Nov 11 10:00 PM — Nov 26 10:00 PM, Port of Spain, Weather by CustomWeather, © 2014

Note: Actual official high and low records may vary slightly from our data, if they occured in-between our weather recording intervals... More about our weather records

Advertising

Port of Spain weather history for previous 24 hours

 ConditionsComfort  
Time TempWeatherWind HumidityBarometerVisibility
10:00 PM
Nov 26
79 °FPassing clouds.No wind84%29.89 "HgN/A
9:00 PM79 °FPassing clouds.No wind84%29.89 "HgN/A
8:00 PM79 °FPassing clouds.No wind84%29.89 "HgN/A
7:00 PM81 °FPassing clouds.No wind79%29.86 "HgN/A
6:00 PM81 °FPassing clouds.12 mph79%29.83 "HgN/A
5:00 PM84 °FPassing clouds.7 mph70%29.83 "HgN/A
4:00 PM86 °FPassing clouds.12 mph66%29.83 "HgN/A
3:00 PM90 °FPassing clouds.14 mph55%29.83 "HgN/A
2:00 PM90 °FPassing clouds.15 mph55%29.83 "HgN/A
1:00 PM90 °FPassing clouds.17 mph55%29.86 "HgN/A
12:00 PM90 °FPassing clouds.12 mph55%29.89 "HgN/A
11:00 AM90 °FScattered clouds.17 mph59%29.89 "HgN/A
10:00 AM88 °FPartly sunny.17 mph62%29.92 "HgN/A
9:00 AM86 °FScattered clouds.15 mph66%29.92 "HgN/A
8:00 AM84 °FPassing clouds.13 mph70%29.89 "HgN/A
7:00 AM81 °FPassing clouds.5 mph74%29.86 "HgN/A
6:00 AM77 °FPassing clouds.No wind83%29.86 "HgN/A
5:00 AM75 °FPassing clouds.No wind89%29.83 "HgN/A
4:00 AM75 °FSprinkles. Partly cloudy.13 mph89%29.83 "HgN/A
3:00 AM77 °FPartly cloudy.No wind89%29.80 "HgN/A
2:00 AM77 °FPassing clouds.No wind89%29.83 "HgN/A
1:00 AM77 °FPassing clouds.No wind89%29.83 "HgN/A
12:00 AM79 °FPassing clouds.7 mph84%29.86 "HgN/A
11:00 PM
Nov 25
79 °FPassing clouds.No wind84%29.86 "HgN/A
Weather by CustomWeather, © 2014

See weather overviewHow to use our weather pages